Regional Weather Roundup
Issued by NWS Glasgow, MT

Home | Current Version | Previous Version | Text Only | Print | Product List | Glossary On
Versions: 1 2 3 4 5 6 7 8 9 10 11 12 13 14 15 16 17 18 19 20 21 22 23 24 25 26 27 28 29 30 31 32 33 34 35 36 37 38 39 40 41 42 43 44 45 46 47 48 49 50
607
ASUS45 KGGW 010115
RWRGGW
HOURLY REGIONAL WEATHER ROUNDUP FOR NORTHEAST MONTANA
NATIONAL WEATHER SERVICE GLASGOW MONTANA
700 PM MDT WED AUG 31 2016

NOTE: "FAIR" INDICATES FEW OR NO CLOUDS BELOW 12,000 FEET WITH NO
SIGNIFICANT WEATHER AND/OR OBSTRUCTIONS TO VISISBILITY.

NORTHEAST MONTANA


CITY           SKY/WX    TMP DP  RH WIND       PRES   REMARKS
GLASGOW        CLEAR     93  44  18 SE15      29.83F
PLENTYWOOD       N/A     89  37  16 SE17G30     N/A
WOLF POINT     CLEAR     94  44  17 S7        29.88R
JORDAN           N/A     95  35  12 SE14      29.86F
WINNETT          N/A     96  33  11 SE7G16      N/A
SIDNEY         CLEAR     87  51  28 S14G21    29.94R
GLENDIVE       CLOUDY    89  46  22 S15       29.96R
MALTA            N/A     93  55  27 E5G13       N/A
SCOBEY           N/A     90  48  23 SE6       29.91S

FORT PECK REPORTS


CITY           SKY/WX    TMP DP  RH WIND       PRES   REMARKS
FORT PECK        N/A     85  54  34 SE24        N/A
THE PINES        N/A     88  46  23 SE8G16      N/A

SOUTHEAST MONTANA


CITY           SKY/WX    TMP DP  RH WIND       PRES   REMARKS
BILLINGS       PTCLDY    93  36  13 SE7       29.90F
MILES CITY     PTCLDY    89  42  19 SE16      29.92F
BAKER          CLEAR     83  44  25 SE20G29   30.04S
LIVINGSTON     CLOUDY    83  37  19 NE8       29.96F

CENTRAL MONTANA


CITY           SKY/WX    TMP DP  RH WIND       PRES   REMARKS
HAVRE          CLOUDY    90  48  23 SW14G28   29.85R THUNDER
LEWISTOWN      CLOUDY    85  43  22 CALM      29.94R
GREAT FALLS    CLOUDY    83  34  17 W18G39    29.95R
CUT BANK       CLOUDY    77  45  32 NW7       29.94S
HELENA         CLOUDY    82  41  23 W12       29.95F
BUTTE          CLOUDY    74  39  28 CALM      30.07F
BOZEMAN        CLOUDY    83  36  18 NW20G32   29.96R

WESTERN MONTANA


CITY           SKY/WX    TMP DP  RH WIND       PRES   REMARKS
MISSOULA       PTSUNNY   80  43  26 E5        29.88F
KALISPELL      NOT AVBL

NORTH DAKOTA


CITY           SKY/WX    TMP DP  RH WIND       PRES   REMARKS
WILLISTON      CLEAR     90  48  23 SE15      29.97R
DICKINSON      CLEAR     80  48  32 SE14      30.06R
MINOT          CLEAR     74  55  51 SE13      30.09F
BISMARCK       CLEAR     72  61  68 E13       30.16R

SOUTHERN SASKATCHEWAN


CITY           SKY/WX    TMP DP  RH WIND       PRES   REMARKS
REGINA         MOCLDY    73  57  56 E22G31    29.99F
ESTEVAN        PTCLDY    70  61  73 E15G29    30.04S
SWIFT CURRENT  CLEAR     73  61  64 E15G26    29.90F





USA.gov is the U.S. government's official web portal to all federal, state and local government web resources and services.